Regional Weather Roundup
Issued by NWS

Home | Current Version | Previous Version | Graphics & Text | Print | Product List | Glossary On
Versions: 1 2 3 4 5 6 7 8 9 10 11 12 13 14 15 16 17 18 19 20 21 22 23 24 25 26 27 28 29 30 31 32 33 34 35 36 37 38 39 40 41 42 43 44 45 46 47 48 49 50
000
ASUS43 KMKX 041221
RWRWI

WISCONSIN REGIONAL WEATHER ROUNDUP
NATIONAL WEATHER SERVICE MILWAUKEE/SULLIVAN WI
700 AM CDT TUE AUG 04 2015

NOTE: "FAIR" INDICATES FEW OR NO CLOUDS BELOW 12,000 FEET WITH NO
SIGNIFICANT WEATHER AND/OR OBSTRUCTIONS TO VISIBILITY.

WIZ001-002-006>008-014>016-023>028-041300-
NORTHWEST WISCONSIN

CITY           SKY/WX    TMP DP  RH WIND       PRES   REMARKS
SUPERIOR ARPT  SUNNY     53  51  94 CALM      29.94R
6HR MIN TEMP:  46; 6HR MAX TEMP:  53;

ASHLAND        SUNNY     55  53  93 W5        29.93R
6HR MIN TEMP:  51; 6HR MAX TEMP:  59;

HAYWARD        SUNNY     50  47  89 CALM      29.95S
6HR MIN TEMP:  47; 6HR MAX TEMP:  54;

SIREN          CLEAR     52  51  94 CALM      29.95R
6HR MIN TEMP:  49; 6HR MAX TEMP:  55;

CUMBERLAND     CLEAR     50  50 100 CALM      29.96R
RICE LAKE      CLEAR     51  50  95 CALM      29.97R
6HR MIN TEMP:  49; 6HR MAX TEMP:  58;

CHETEK         CLEAR     54  53  96 CALM      29.95S
6HR MIN TEMP:  51; 6HR MAX TEMP:  62;

LADYSMITH      SUNNY     53  51  94 CALM      29.97R
6HR MIN TEMP:  51; 6HR MAX TEMP:  61;

EAU CLAIRE     CLEAR     56  54  93 CALM      29.95R
6HR MIN TEMP:  52; 6HR MAX TEMP:  64;

MENOMONIE      CLEAR     58  55  89 CALM      29.97R
6HR MIN TEMP:  55; 6HR MAX TEMP:  62;

NEW RICHMOND   CLEAR     53  53  99 CALM      29.97R
6HR MIN TEMP:  51; 6HR MAX TEMP:  58;

OSCEOLA        CLEAR     52  52 100 CALM      29.99R
6HR MIN TEMP:  49; 6HR MAX TEMP:  57;

$$

WIZ003>005-009-010-017-018-041300-
NORTH CENTRAL WISCONSIN

CITY           SKY/WX    TMP DP  RH WIND       PRES   REMARKS
MANITOWISH WTR SUNNY     55  54  95 W3        29.92R
6HR MIN TEMP:  50; 6HR MAX TEMP:  56;

ARBOR VITAE    PTSUNNY   59  55  86 W5        29.92S
6HR MIN TEMP:  57; 6HR MAX TEMP:  59;

WOODRUFF       PTSUNNY   59  55  86 W5        29.92S
6HR MIN TEMP:  57; 6HR MAX TEMP:  59;

RHINELANDER    SUNNY     56  52  86 W8        29.93R
6HR MIN TEMP:  53; 6HR MAX TEMP:  59;

EAGLE RIVER    FAIR      56  55  99 W5        29.91S
6HR MIN TEMP:  51; 6HR MAX TEMP:  56;

LAND O LAKES   PTSUNNY   56  55  94 CALM      29.92S
6HR MIN TEMP:  56; 6HR MAX TEMP:  57;

PHILLIPS       SUNNY     54  52  94 CALM      29.94R
6HR MIN TEMP:  51; 6HR MAX TEMP:  57;

TOMAHAWK       SUNNY     54  52  94 W3        29.94R
6HR MIN TEMP:  51; 6HR MAX TEMP:  58;

MEDFORD        SUNNY     54  53  96 CALM      29.95R
6HR MIN TEMP:  50; 6HR MAX TEMP:  61;

MERRILL        NOT AVBL
$$

WIZ029-030-035-036-043>047-041300-
CENTRAL WISCONSIN

CITY           SKY/WX    TMP DP  RH WIND       PRES   REMARKS
WAUSAU         SUNNY     58  54  86 W6        29.92S
6HR MIN TEMP:  57; 6HR MAX TEMP:  65;

MOSINEE        SUNNY     57  55  94 NW5       29.95R
MARSHFIELD     SUNNY     58  52  80 NW7       29.95R
6HR MIN TEMP:  55; 6HR MAX TEMP:  62;

STEVENS POINT  SUNNY     57  53  89 NW3       29.94S
6HR MIN TEMP:  55; 6HR MAX TEMP:  62;

WAUPACA        SUNNY     60  57  91 NW3       29.93R
6HR MIN TEMP:  57; 6HR MAX TEMP:  63;

WAUTOMA        SUNNY     60  54  80 W6        29.94R
6HR MIN TEMP:  51; 6HR MAX TEMP:  60;

WISC RAPIDS    SUNNY     59  53  80 NW5       29.95R
6HR MIN TEMP:  56; 6HR MAX TEMP:  62;

CAMP DOUGLAS   SUNNY     54  54 100 W6        29.95R
$$

WIZ011>013-019>022-031-037>040-048>050-041300-
NORTHEAST WISCONSIN

CITY           SKY/WX    TMP DP  RH WIND       PRES   REMARKS
ANTIGO         PTSUNNY   56  54  92 NW6       29.93R
SHAWANO        MOSUNNY   58  55  89 W5        29.91S
6HR MIN TEMP:  55; 6HR MAX TEMP:  60;

OCONTO         SUNNY     58  58 100 W3        29.89S
6HR MIN TEMP:  52; 6HR MAX TEMP:  60;

STURGEON BAY   MOSUNNY   61  54  77 NW8       29.92S
6HR MIN TEMP:  59; 6HR MAX TEMP:  63;

GREEN BAY      SUNNY     58  55  90 W5        29.91R
6HR MIN TEMP:  55; 6HR MAX TEMP:  61;

MANITOWOC      PTSUNNY   63  57  81 MISG      29.91R
6HR MIN TEMP:  59; 6HR MAX TEMP:  63;

APPLETON       MOSUNNY   57  55  94 VRB6      29.91R
CLINTONVILLE   SUNNY     59  55  88 NW5       29.91S
OSHKOSH        SUNNY     59  52  77 W5        29.91R
6HR MIN TEMP:  58; 6HR MAX TEMP:  62;

$$

WIZ032>034-041-042-053>061-041300-
SOUTHWEST WISCONSIN

CITY           SKY/WX    TMP DP  RH WIND       PRES   REMARKS
LA CROSSE      CLEAR     60  57  89 SE5       29.97R
6HR MIN TEMP:  57; 6HR MAX TEMP:  63;

SPARTA         SUNNY     50  48  92 CALM      29.98R
6HR MIN TEMP:  46; 6HR MAX TEMP:  53;

VIROQUA        SUNNY     55  55 100 W6        29.99R
6HR MIN TEMP:  52; 6HR MAX TEMP:  59;

BOSCOBEL       MOSUNNY   56  54  93 SW5       29.99R
6HR MIN TEMP:  52; 6HR MAX TEMP:  57;

PRAIRIE DU CHI CLEAR     56  53  91 CALM      29.99R
6HR MIN TEMP:  54; 6HR MAX TEMP:  58;

PLATTEVILLE    SUNNY     56  55  97 W3        29.99R
6HR MIN TEMP:  53; 6HR MAX TEMP:  62;

$$

WIZ056-057-062-063-064-067-068-041300-
SOUTH CENTRAL WISCONSIN

CITY           SKY/WX    TMP DP  RH WIND       PRES   REMARKS
REEDSBURG      SUNNY     55  53  92 CALM      29.96R
6HR MIN TEMP:  52; 6HR MAX TEMP:  57;

BARABOO/DELLS  SUNNY     58  52  80 CALM      29.96R
6HR MIN TEMP:  54; 6HR MAX TEMP:  58;

LONE ROCK      FOG       55  54  96 W6        29.99R VSB 1/2
6HR MIN TEMP:  50; 6HR MAX TEMP:  56;

MINERAL POINT  SUNNY     55  54  94 W3        29.99R
MADISON        MOSUNNY   62  53  72 CALM      29.95R
6HR MIN TEMP:  56; 6HR MAX TEMP:  62;

MIDDLETON      MOSUNNY   60  55  83 NW3       29.96R
6HR MIN TEMP:  53; 6HR MAX TEMP:  60;

WATERTOWN      SUNNY     56  56 100 CALM      29.94R
6HR MIN TEMP:  50; 6HR MAX TEMP:  56;

MONROE         SUNNY     61  54  77 W13       29.97R
JANESVILLE     SUNNY     59  55  88 CALM      29.95R
$$

WIZ051-052-058>065-066-070>072-041300-
SOUTHEAST WISCONSIN

CITY           SKY/WX    TMP DP  RH WIND       PRES   REMARKS
MILWAUKEE      MOSUNNY   65  52  62 SW5       29.93R
6HR MIN TEMP:  61; 6HR MAX TEMP:  68;

WAUKESHA       SUNNY     55  50  82 CALM      29.95R
MILWAUKEE/TIMM SUNNY     61  52  72 CALM      29.94R
RACINE         SUNNY     63  53  70 W7        29.95R
6HR MIN TEMP:  60; 6HR MAX TEMP:  65;

BURLINGTON     SUNNY     55  54  94 CALM      29.94S
6HR MIN TEMP:  50; 6HR MAX TEMP:  56;

KENOSHA        SUNNY     59  56  89 W3        29.95R
6HR MIN TEMP:  56; 6HR MAX TEMP:  61;

FOND DU LAC    SUNNY     59  52  77 SW6       29.92R
6HR MIN TEMP:  56; 6HR MAX TEMP:  61;

SHEBOYGAN      PTSUNNY   61  56  83 CALM      29.91R
6HR MIN TEMP:  56; 6HR MAX TEMP:  61;

WEST BEND      SUNNY     57  54  88 CALM      29.93R
JUNEAU         SUNNY     54  52  92 SW3       29.95R
6HR MIN TEMP:  53; 6HR MAX TEMP:  57;

$$

LSZ147-162-041300-
LAKE SUPERIOR

STATION/POSITION TIME  TEMP    WIND        PRES    WAVE
                       AIR SEA DIR/SP/G            HT/PER
                 (UTC) (F)     (DEG/KT/KT) (MB)    (FT/S)
W MID LAKE BUOY  1150   56 56  300/  4/  4 1012.2R   1/ 3
DEVILS ISLAND    1200   58     300/ 11/ 12 1013.2R
PORT WING        1100   55     190/  4/  4 1013.5R
SAXON HARBOR     1140   58        CALM     1012.5R
$$

LMZ867-665-643>646-041300-
LAKE MICHIGAN

STATION/POSITION TIME  TEMP    WIND        PRES    WAVE
                       AIR SEA DIR/SP/G            HT/PER
                 (UTC) (F)     (DEG/KT/KT) (MB)    (FT/S)
CHAMBERS ISLAND  1100   62     300/  4/  7 1011.5R


USA.gov is the U.S. government's official web portal to all federal, state and local government web resources and services.